Williams Field, Antarctic, New Zealand
  Lat: 77.88S, Lon: 166.65E
ICAO Used: NZWD
Past Weather Observations for Tuesday, December 16, 2014

NOTE: This archive is for the closest National Weather Service station to Williams Field, Antarctic. Information may differ from the station used for current weather conditions.

Click here for Long-term Archive

Time Weather Temperature Dewpoint Humidity Pressure Winds Precip Visibility
23:50
Overcast
Light Snow
21°F / -6°C 16°F / -9°C 80% 29.24 in
(990 mb)
S 6.9 mph
(S 11 kph)
- 3200
23:34
Overcast
Light Snow
21°F / -6°C 16°F / -9°C 80% 29.24 in
(990 mb)
SSE 6.9 mph
(SSE 11 kph)
- 3200
23:25
Overcast
Light Snow
21°F / -6°C 16°F / -9°C 80% 29.24 in
(990 mb)
SSE 9.2 mph
(SSE 15 kph)
- 1600
23:10
Overcast
Light Snow
21°F / -6°C 16°F / -9°C 80% 29.24 in
(990 mb)
SSE 8.1 mph
(SSE 13 kph)
- 1600
22:55
Mostly Cloudy
21°F / -6°C 16°F / -9°C 80% 29.24 in
(990 mb)
SSE 9.2 mph
(SSE 15 kph)
- 10km
21:55
Mostly Cloudy
25°F / -4°C 16°F / -9°C 69% 29.24 in
(990 mb)
Variable 3.5 mph
(Variable 6 kph)
- 10km
20:55
Mostly Cloudy
21°F / -6°C 14°F / -10°C 74% 29.21 in
(989 mb)
NE 8.1 mph
(NE 13 kph)
- 10km
19:55
Partly Cloudy
21°F / -6°C 14°F / -10°C 74% 29.21 in
(989 mb)
NNE 5.8 mph
(NNE 9 kph)
- 10km
18:55
Mostly Cloudy
19°F / -7°C 14°F / -10°C 79% 29.21 in
(989 mb)
NE 6.9 mph
(NE 11 kph)
- 10km
17:55
Mostly Cloudy
19°F / -7°C 14°F / -10°C 79% 29.18 in
(988 mb)
NE 6.9 mph
(NE 11 kph)
- 10km
16:55
Mostly Cloudy
16°F / -9°C 12°F / -11°C 86% 29.18 in
(988 mb)
N 6.9 mph
(N 11 kph)
- 10km
15:55
Mostly Cloudy
18°F / -8°C 12°F / -11°C 79% 29.18 in
(988 mb)
SSE 9.2 mph
(SSE 15 kph)
- 10km
14:58
Mostly Cloudy
18°F / -8°C 12°F / -11°C 79% 29.18 in
(988 mb)
SSE 9.2 mph
(SSE 15 kph)
- 10km
14:55
Mostly Cloudy
18°F / -8°C 14°F / -10°C 86% 29.18 in
(988 mb)
SSE 10.4 mph
(SSE 17 kph)
- 10km
13:55
Mostly Cloudy
Snow
18°F / -8°C 14°F / -10°C 86% 29.18 in
(988 mb)
S 16.1 mph
(S 26 kph)
- 10km
13:16
Mostly Cloudy
Snow
18°F / -8°C 12°F / -11°C 79% 29.18 in
(988 mb)
SE 13.8 mph
(SE 22 kph)
- 10km
12:55
Mostly Cloudy
Light Snow
18°F / -8°C 12°F / -11°C 79% 29.18 in
(988 mb)
S 15 mph
(S 24 kph)
- 10km
12:20
Mostly Cloudy
Snow
18°F / -8°C 12°F / -11°C 79% 29.15 in
(987 mb)
SSE 11.5 mph
(SSE 19 kph)
- 10km
11:55
Mostly Cloudy
Light Snow
18°F / -8°C 12°F / -11°C 79% 29.15 in
(987 mb)
SSE 16.1 mph
(SSE 26 kph)
- 10km
11:25
Mostly Cloudy
Light Snow
18°F / -8°C 12°F / -11°C 79% 29.15 in
(987 mb)
S 16.1 mph
(S 26 kph)
- 10km
10:55
Mostly Cloudy
18°F / -8°C 12°F / -11°C 79% 29.15 in
(987 mb)
S 21.9 mph
(S 35 kph)
- 10km
09:55
Overcast
16°F / -9°C 12°F / -11°C 86% 29.15 in
(987 mb)
S 18.4 mph
(S 30 kph)
- 10km
08:55
Overcast
16°F / -9°C 12°F / -11°C 86% 29.15 in
(987 mb)
SSE 19.6 mph
(SSE 32 kph)
- 10km
07:55
Overcast
Blowing Snow
18°F / -8°C 10°F / -12°C 73% 29.15 in
(987 mb)
S 24.2 mph
(S 39 kph)
- 6000
06:55
Overcast
Light Snow
18°F / -8°C 12°F / -11°C 79% 29.09 in
(985 mb)
SSE 18.4 mph
(SSE 30 kph)
- 10km
05:55
Overcast
Light Snow
19°F / -7°C 14°F / -10°C 79% 29.15 in
(987 mb)
SSE 3.5 mph
(SSE 6 kph)
- 10km
04:49
Overcast
Light Snow
19°F / -7°C 14°F / -10°C 79% 29.15 in
(987 mb)
E 6.9 mph
(E 11 kph)
- 10km
03:55
Overcast
Light Snow
19°F / -7°C 14°F / -10°C 79% 29.15 in
(987 mb)
SSE 9.2 mph
(SSE 15 kph)
- 10km
02:55
Overcast
Light Snow
19°F / -7°C 16°F / -9°C 86% 29.15 in
(987 mb)
SE 4.6 mph
(SE 7 kph)
- 10km
01:55
Overcast
Light Snow
21°F / -6°C 14°F / -10°C 74% 29.15 in
(987 mb)
SE 9.2 mph
(SE 15 kph)
- 10km
00:55
Overcast
Light Snow
21°F / -6°C 16°F / -9°C 80% 29.15 in
(987 mb)
ENE 9.2 mph
(ENE 15 kph)
- 10km
Time Weather Temperature Dewpoint Humidity Pressure Winds Precip Visibility


Weather for websites

WeatherForYou.com, LLC is not responsible for any damages or problems caused by this service. Current weather conditions are obtained from the closest station including government and personal stations which may have varying degrees of accuracy. Weather forecasts are derived from the NOAA NDFD. Like all things, this site belongs to Jesus Christ... He just trusts me to maintain it. If you have any questions or comments email webmaster@weatherforyou.com

Copyright © 2014, WeatherForYou.com LLC. All rights reserved.